SCP
1 1 1 0 0 0 0 0 0 -0 -0 -0 -0 -0 0 0 0 0 0 0 0 0 0 0 0 0 0 0 0 0 0 0 0 0 0 0 0 0 0 0 0 0 0
1 1 1 0 0 0 0 0 0 -0 -0 -0 -0 -0 0 0 0 0 0 0 0 0 0 0 0 0 0 0 0 0 0 0 0 0 0 0 0 0 0 0 0 0 0
1 1 0 0 0 0 0 0 0 0 0 0 0 0 0 0 0 0 0 0 0 0 0 0 0 0 0 0 0 0 0 0 0 0 0 0 0 0 0 0 0 0 0
1 1 0 0 0 0 0 0 0 0 0 0 0 0 0 0 0 0 0 0 0 0 0 0 0 0 0 0 0 0 0 -0 -0 -0 -0 0 0 0 0 0 0 0 0
0 0 0 0 0 0 0 0 0 0 0 0 0 0 0 0 0 0 0 0 0 0 0 0 0 0 0 0 0 0 -0 -0 -0 -0 0 0 0 0 0 0 0 0 0
0 0 1 0 0 0 0 0 0 0 0 0 0 0 0 0 0 0 0 0 0 0 0 0 0 0 0 0 0 0 -0 -0 0 0 0 0 0 0 0 0 0 0 0
1 1 1 0 0 0 0 0 0 0 0 0 0 0 0 0 0 0 0 0 0 0 0 0 0 0 0 0 0 -0 -0 -0 0 0 0 0 0 0 0 0 0 0 0
1 1 1 1 0 0 0 0 0 0 0 1 0 0 0 0 0 0 0 0 0 0 0 0 0 0 0 0 0 -0 -0 -0 0 0 0 0 0 0 0 0 0 0 0
1 1 0 0 0 0 0 0 0 0 1 1 1 1 0 0 0 0 0 0 0 0 0 0 0 0 0 0 0 -0 -0 -0 0 0 0 0 0 0 0 0 0 0 0
1 1 0 0 0 0 0 0 0 1 1 1 1 1 0 0 0 0 0 0 0 0 0 0 0 0 0 0 0 0 -0 -0 0 0 0 0 0 0 0 0 0 0 0
1 1 0 0 0 0 0 0 0 1 1 1 0 0 0 0 0 0 0 0 0 0 0 0 0 0 0 0 0 0 -0 -0 0 0 0 0 0 0 0 0 0 0 0
1 1 0 0 0 0 0 0 0 0 0 0 0 0 0 0 0 0 1 1 1 0 0 0 0 0 0 0 0 0 0 0 0 0 0 0 0 0 0 0 0 0 0
1 1 1 1 1 1 1 1 0 0 0 0 0 1 0 0 0 1 1 1 1 0 0 0 0 0 0 0 0 0 0 0 0 0 0 0 1 0 0 0 0 0 0
1 1 1 1 1 1 1 1 1 1 1 1 1 1 1 0 0 1 1 1 1 0 0 0 0 0 0 0 0 0 0 0 0 0 0 1 1 1 0 0 0 0 0
1 1 1 1 1 1 1 1 1 1 1 1 1 1 1 1 1 1 1 1 1 1 0 0 0 0 0 0 0 0 0 0 0 0 1 1 1 1 0 0 0 0 0
1 1 1 1 1 1 1 1 1 1 1 1 1 1 1 1 1 1 1 1 1 1 1 1 1 1 1 1 1 1 1 1 1 1 1 1 1 1 1 0 0 0 0
1 1 1 1 2 2 2 1 1 1 1 1 1 1 1 1 1 1 1 1 1 1 1 1 1 1 1 1 1 1 1 1 1 1 1 1 1 1 1 0 0 0 0
1 1 1 1 2 2 2 1 1 1 1 2 2 2 2 1 1 1 1 1 1 1 1 1 1 1 1 1 1 1 1 1 1 1 1 1 0 0 0 0 0 0 0
1 1 1 2 2 2 2 2 2 2 2 2 2 2 2 2 2 2 2 1 1 2 1 1 1 1 1 1 1 1 1 1 1 1 1 1 0 0 0 0 0 0 0
1 2 2 2 2 2 2 2 2 2 2 2 2 2 2 2 2 2 2 2 2 2 2 2 2 1 1 1 1 1 1 1 1 1 1 0 0 0 0 0 0 0 0
1 2 2 2 2 2 2 2 2 2 2 2 2 2 2 2 2 2 2 2 2 2 2 2 1 1 1 1 1 1 1 1 1 1 1 0 0 0 0 0 0 0 0
1 1 1 2 2 2 2 2 2 2 2 2 2 2 2 2 2 2 2 2 2 2 2 1 1 1 1 1 1 1 0 0 0 0 0 0 0 0 0 0 0 0 0
1 1 1 1 1 2 2 2 2 2 2 2 2 2 2 2 2 2 2 2 2 2 2 1 1 1 1 1 1 1 0 0 0 0 0 0 0 0 0 0 0 0 0
1 1 1 1 1 1 2 2 2 2 2 2 2 2 2 1 1 1 1 2 2 2 1 1 1 1 1 1 1 1 0 0 0 0 0 0 0 0 0 0 0 0 0
1 1 1 1 1 1 1 1 1 1 2 2 2 2 1 1 1 1 1 1 2 1 1 1 1 1 1 1 1 1 0 0 0 0 0 0 0 0 0 -0 -0 -0 -0
1 1 1 1 1 1 1 1 1 1 1 1 1 1 1 1 1 1 1 1 1 1 1 1 1 1 1 1 1 0 0 0 0 0 0 0 0 -0 -0 -0 -0 -0 -0
Wind_Speed
17 17 17 16 16 16 16 15 15 14 14 13 12 12 13 13 13 13 14 13 12 11 11 10 9 9 10 11 12 13 13 13 14 15 15 15 13 12 11 10 13 13 14
20 18 16 16 16 16 16 15 15 14 14 13 13 12 12 12 12 12 12 11 11 11 10 10 10 10 10 10 10 11 11 11 12 13 14 13 12 11 12 13 15 10 13
20 18 16 15 16 16 16 15 15 14 14 13 12 12 11 11 11 10 11 10 10 10 10 10 10 10 10 10 10 9 9 8 9 9 10 10 10 11 13 15 15 14 13
19 17 15 15 15 16 16 15 15 15 14 13 12 12 11 11 10 10 9 9 9 9 9 9 9 9 9 9 9 8 7 6 6 7 4 7 9 11 11 12 12 12 11
18 16 16 16 15 15 16 16 15 15 14 14 13 12 11 11 10 9 9 9 9 8 9 9 9 9 9 8 8 6 5 5 4 6 2 7 9 11 11 10 10 10 10
19 17 16 15 15 15 15 15 15 15 14 14 13 12 11 10 9 9 9 8 8 8 8 8 8 8 8 7 7 5 4 4 5 5 3 9 9 10 11 10 9 9 8
19 17 16 15 15 14 14 14 14 14 13 13 12 12 11 10 9 8 8 8 8 8 8 8 8 7 7 7 6 4 4 5 6 4 4 9 10 12 10 9 8 8 7
19 18 15 15 15 14 14 13 13 13 13 12 12 11 11 10 9 8 8 8 8 7 7 7 7 7 6 6 5 4 5 7 5 1 6 9 12 12 10 9 8 7 6
18 17 15 14 13 13 13 13 12 12 12 11 11 11 10 10 9 9 8 7 8 7 7 7 7 7 6 5 5 4 5 6 8 2 7 8 12 12 10 8 7 6 5
17 16 14 14 13 12 11 12 12 12 11 11 11 11 10 10 9 9 8 8 8 8 8 8 7 7 6 5 5 5 5 6 5 3 4 8 13 12 10 9 7 6 5
14 14 13 14 13 12 12 12 12 11 10 10 9 10 9 8 8 8 10 10 9 8 8 8 8 7 7 7 7 7 5 4 3 0 4 12 13 12 10 9 7 6 6
12 12 11 11 11 11 10 10 8 8 9 7 7 8 7 5 5 7 9 12 11 9 9 9 9 8 7 6 8 8 4 5 2 2 6 14 13 12 10 9 8 7 6
11 9 9 9 7 7 7 8 5 4 6 6 6 7 5 4 3 4 4 7 7 8 7 8 8 7 7 5 5 6 5 4 2 3 7 13 12 12 11 9 8 7 6
9 7 8 9 7 6 6 5 4 4 5 4 5 6 5 3 3 3 3 5 5 4 5 6 5 7 7 6 6 6 5 3 2 3 7 12 11 11 11 10 8 7 7
8 5 6 6 5 4 4 3 4 3 4 4 4 5 4 3 2 2 3 3 5 4 4 4 5 5 4 3 3 4 4 2 4 4 5 10 11 10 10 10 9 8 8
7 4 4 6 5 4 3 2 2 2 2 3 3 4 4 3 2 2 2 2 3 3 4 4 4 3 2 1 1 1 1 3 4 5 6 7 9 10 9 9 9 9 9
5 5 3 4 5 4 3 1 1 1 1 1 2 3 2 2 1 2 2 3 3 3 2 2 3 2 2 2 0 1 1 2 3 5 6 5 6 8 9 9 10 10 10
6 4 2 2 5 3 2 1 0 0 1 1 1 2 2 2 2 2 3 3 3 2 2 2 2 2 2 2 1 1 1 2 3 3 4 4 4 5 7 10 10 10 11
6 4 3 5 5 3 2 1 0 0 1 1 1 1 2 2 2 2 3 2 2 2 2 4 3 3 3 3 2 1 2 2 2 3 4 4 4 5 5 8 10 11 11
7 6 5 6 5 3 1 1 0 0 0 0 1 1 1 1 1 2 2 3 3 2 3 3 3 3 3 3 3 2 2 2 2 3 3 4 4 5 6 6 5 7 12
7 6 6 5 4 2 2 1 0 0 0 0 0 0 0 0 1 2 3 3 3 3 4 4 3 4 4 4 3 2 2 3 3 2 2 3 4 4 5 5 5 5 6
7 7 6 5 4 4 3 2 1 1 1 0 0 1 1 0 1 2 2 2 3 3 4 3 4 3 3 4 3 3 3 2 1 2 3 3 3 4 4 5 6 6 5
7 7 6 6 5 5 4 2 1 1 1 0 0 1 0 1 1 1 2 2 2 3 3 3 4 4 4 5 4 4 4 4 3 1 2 3 3 4 4 4 6 6 7
7 6 6 6 6 5 4 3 3 1 1 2 1 0 0 1 1 1 1 2 2 1 2 3 3 3 4 4 4 3 2 4 5 4 1 2 4 4 4 4 5 6 7
7 7 6 6 6 5 5 4 3 3 2 2 1 1 0 0 1 1 1 1 1 1 2 2 2 3 3 4 4 3 3 2 3 4 4 3 3 3 3 4 4 5 6
7 7 6 6 6 6 6 5 4 4 3 3 2 2 1 1 1 2 2 2 1 1 2 2 2 3 4 4 4 4 4 4 5 4 5 6 4 3 3 3 3 4 4
Wind_Direction
121 127 131 132 136 137 137 135 133 131 127 122 119 114 110 106 103 101 101 104 106 109 110 109 104 95 87 81 80 81 84 86 86 87 89 89 86 83 79 89 102 87 87
123 127 129 132 137 140 140 139 137 135 132 130 128 124 120 116 113 110 109 110 111 111 110 111 109 104 98 95 95 95 95 97 101 107 108 100 91 82 72 73 85 95 92
122 129 130 132 138 142 143 142 140 139 138 136 134 132 128 124 121 118 115 115 115 114 113 113 114 112 109 108 108 109 112 117 124 135 141 118 102 88 83 84 90 95 93
126 135 132 132 137 143 145 144 143 143 143 141 139 138 136 133 129 126 123 121 118 118 118 118 119 118 118 119 120 123 132 142 156 175 190 121 112 99 94 93 94 95 95
130 129 126 133 136 142 145 146 147 147 147 146 145 144 143 140 137 135 133 129 124 122 122 124 124 125 126 128 130 138 156 175 200 226 211 102 101 112 107 104 101 100 99
131 125 129 132 135 140 145 147 149 149 150 150 150 149 148 147 145 145 142 137 132 129 128 129 131 133 134 136 141 158 191 218 248 242 166 119 115 122 119 115 111 109 106
128 127 131 131 132 137 143 146 148 149 150 151 151 152 152 151 150 152 150 146 143 140 139 138 140 141 143 145 153 178 220 248 256 278 115 113 123 132 129 126 120 116 114
126 128 130 132 133 136 140 143 146 147 148 150 152 153 154 155 155 158 157 156 155 151 150 150 149 152 153 156 166 198 238 270 270 263 107 112 133 135 134 133 131 129 127
128 131 139 139 137 136 136 139 142 144 146 149 152 155 157 160 162 165 163 163 163 162 161 159 160 163 166 170 184 219 254 279 296 293 124 122 139 138 140 142 143 142 141
131 136 145 149 146 148 144 142 142 144 146 150 155 160 163 167 172 174 173 174 173 173 173 170 171 175 178 186 201 228 257 285 278 278 114 133 143 141 145 151 155 156 157
131 138 150 151 154 159 155 148 148 149 151 154 163 168 172 184 185 186 193 173 181 183 183 181 182 185 188 200 215 230 251 251 242 350 106 138 145 145 148 155 161 164 166
132 141 147 148 155 162 154 147 162 169 161 180 173 174 194 202 195 190 173 170 180 186 189 193 195 197 207 205 210 222 234 234 225 145 133 147 148 149 152 157 161 164 161
132 141 145 142 145 150 138 150 163 169 159 193 183 176 203 209 196 168 163 167 180 189 198 191 200 213 213 214 193 199 214 229 167 141 143 152 150 150 151 154 156 157 155
132 138 133 137 142 142 135 150 156 166 157 180 171 180 198 211 207 177 175 171 185 198 208 192 208 216 220 220 205 197 204 207 124 113 141 149 147 149 150 151 153 152 148
102 112 123 119 126 118 118 150 152 164 156 179 173 182 197 204 217 207 175 175 197 194 201 214 210 209 222 234 230 194 187 166 122 118 131 141 143 143 146 149 150 150 144
55 56 78 106 107 102 105 113 117 150 147 163 163 177 198 212 201 215 194 194 218 203 193 210 213 198 208 248 281 325 108 109 110 118 121 129 130 133 139 143 145 142 137
68 48 36 95 94 90 105 117 129 135 134 141 149 168 194 220 213 232 227 199 226 222 209 212 207 199 203 208 221 356 39 76 96 110 119 124 126 128 130 130 132 134 135
87 75 34 69 97 92 82 96 306 43 76 90 133 158 182 226 229 243 246 228 221 226 204 206 211 204 197 170 164 129 82 73 74 97 111 121 125 125 122 125 126 128 129
98 105 69 50 57 72 87 114 229 52 66 85 101 140 169 219 231 241 253 259 236 222 216 219 203 190 177 164 148 127 95 97 105 116 110 111 115 119 120 124 125 126 128
78 73 65 63 45 25 54 69 94 75 77 105 115 143 168 200 238 257 254 254 254 232 219 218 205 185 170 156 151 111 81 82 82 95 110 114 119 123 125 124 123 119 121
67 65 62 57 48 25 29 15 52 292 297 287 206 136 163 190 252 239 261 246 237 241 233 211 195 188 178 152 134 122 77 57 65 76 85 96 104 107 112 119 119 115 116
61 53 58 47 36 27 21 349 334 331 300 262 37 57 37 336 274 253 246 252 234 233 228 207 202 195 188 177 164 153 150 132 61 53 74 93 99 101 104 119 118 115 111
62 51 43 37 32 25 6 350 344 331 283 268 135 106 25 306 266 288 281 272 264 248 229 210 203 201 201 191 175 164 165 175 141 83 62 80 100 103 100 98 104 109 111
58 57 52 43 34 23 9 4 354 336 328 335 343 84 71 332 307 290 286 278 267 253 244 229 212 210 200 196 192 190 176 145 149 141 103 67 78 86 89 96 97 97 101
53 48 46 41 34 24 15 11 351 341 344 349 3 347 4 4 331 330 336 316 298 271 261 246 231 220 212 210 196 180 177 162 143 142 152 143 92 69 80 86 98 101 103
54 44 38 37 30 22 17 13 4 350 344 338 346 339 343 12 0 1 356 351 333 322 299 272 242 227 219 217 209 195 177 166 167 153 149 151 133 99 78 80 94 102 107